Casa Grande, AZ

8:24 PM MST on November 13, 2019 (GMT -0700)
Casa Grande Municipal

Weather History for KCGZ - September, 2019

Change the Weather History Date:

Friday, September 27, 2019

  Actual Average Record
Temperature  
Mean Temperature 75 °F -  
Max Temperature 84 °F 93 °F 102 °F (2001)
Min Temperature 66 °F 64 °F 60 °F (1998)
Cooling Degree Days 10    
Growing Degree Days 25 (Base 50)    
Moisture  
Dew Point 61 °F    
Average Humidity 62    
Maximum Humidity 90    
Minimum Humidity 37    
Precipitation  
Precipitation 0.00 in - - ()
Sea Level Pressure  
Sea Level Pressure 29.81 in    
Wind  
Wind Speed 4 mph ()    
Max Wind Speed 9 mph    
Max Gust Speed -    
Visibility 10.0 miles    
Events      
Averages and records for this station are not official NWS values.
T = Trace of Precipitation, MM = Missing Value Source: Averaged Metar Reports

Daily Weather History Graph

Daily Weather History Graph

Search for Another Location

Airport or City:

Astronomy

Sep. 27, 2019 Rise Set
Actual Time 6:18 AM MST 6:17 PM MST
Civil Twilight 5:53 AM MST 6:41 PM MST
Nautical Twilight 5:25 AM MST 7:10 PM MST
Astronomical Twilight 4:56 AM MST 7:39 PM MST
Moon 4:53 AM MST (9/27) 6:03 PM MST (9/27)
Length of Visible Light 12h 47m
Length of Day
11h 58m
Waning Crescent, 1% of the Moon is Illuminated
Sep 27
Waning Crescent
Sep 28
New
Oct 5
First Quarter
Oct 13
Full
Oct 21
Last Quarter

Hourly Weather History & Observations

Time (MST) Temp. Heat Index Dew Point Humidity Pressure Visibility Wind Dir Wind Speed Gust Speed Precip Events Conditions
12:56 AM 69.1 °F - 64.0 °F 84% 29.87 in 10.0 mi SSW 4.6 mph - N/A   Clear
1:56 AM 69.1 °F - 64.0 °F 84% 29.86 in 10.0 mi ESE 3.5 mph - N/A   Partly Cloudy
2:56 AM 66.0 °F - 63.0 °F 90% 29.85 in 10.0 mi Calm Calm - N/A   Clear
3:56 AM 68.0 °F - 64.0 °F 87% 29.85 in 10.0 mi Calm Calm - N/A   Overcast
4:56 AM 69.1 °F - 63.0 °F 81% 29.86 in 10.0 mi ENE 3.5 mph - N/A   Overcast
5:56 AM 69.1 °F - 63.0 °F 81% 29.86 in 10.0 mi West 4.6 mph - N/A   Overcast
6:56 AM 66.9 °F - 62.1 °F 84% 29.86 in 10.0 mi Calm Calm - N/A   Clear
7:56 AM 71.1 °F - 63.0 °F 75% 29.88 in 10.0 mi SE 3.5 mph - N/A   Clear
8:56 AM 73.0 °F - 64.0 °F 73% 29.88 in 10.0 mi North - - N/A   Scattered Clouds
9:56 AM 77.0 °F - 64.0 °F 64% 29.87 in 10.0 mi Variable 3.5 mph - N/A   Clear
10:56 AM 79.0 °F - 63.0 °F 58% 29.87 in 10.0 mi Variable 3.5 mph - N/A   Partly Cloudy
11:56 AM 80.1 °F 81.5 °F 63.0 °F 56% 29.85 in 10.0 mi West 6.9 mph - N/A   Overcast
12:56 PM 80.1 °F 81.1 °F 61.0 °F 52% 29.82 in 10.0 mi ESE 4.6 mph - 0.00 in   Clear
1:56 PM 84.0 °F 83.5 °F 57.9 °F 41% 29.78 in 10.0 mi WSW 9.2 mph - N/A   Mostly Cloudy
2:56 PM 84.0 °F 83.3 °F 57.0 °F 40% 29.76 in 10.0 mi SW 6.9 mph - N/A   Mostly Cloudy
3:56 PM 84.9 °F 83.7 °F 55.9 °F 37% 29.74 in 10.0 mi Variable 5.8 mph - N/A   Clear
4:56 PM 84.0 °F 83.3 °F 57.0 °F 40% 29.73 in 10.0 mi Variable 4.6 mph - N/A   Clear
5:56 PM 82.9 °F 82.6 °F 57.9 °F 42% 29.73 in 10.0 mi West 6.9 mph - N/A   Clear
6:56 PM 81.0 °F 81.1 °F 57.9 °F 45% 29.74 in 10.0 mi West 5.8 mph - N/A   Clear
7:56 PM 77.0 °F - 57.9 °F 52% 29.75 in 10.0 mi WNW 5.8 mph - N/A   Clear
8:56 PM 77.0 °F - 57.9 °F 52% 29.75 in 10.0 mi NW 5.8 mph - N/A   Clear
9:56 PM 75.0 °F - 57.0 °F 53% 29.75 in 10.0 mi NNW 5.8 mph - N/A   Clear
10:56 PM 73.0 °F - 57.9 °F 59% 29.75 in 10.0 mi North 5.8 mph - N/A   Clear
11:56 PM 72.0 °F - 57.9 °F 61% - 10.0 mi North 5.8 mph - N/A   Clear